| time (UTC) | temp C | wind direction | speed KPH | gust KPH | rain 1hr cm | rain 24hr cm | rain mn cm | humidity % | barometer mb |
| 20260502223626 | 21 | 312 | 8.0 | 20.9 | 0.00 | 0.03 | 0.00 | 68 | 1016.0 |
| 20260502222126 | 21 | 18 | 3.2 | 22.5 | 0.00 | 0.03 | 0.00 | 68 | 1016.0 |
| 20260502220626 | 22 | 359 | 6.4 | 19.3 | 0.00 | 0.03 | 0.00 | 69 | 1016.0 |
| 20260502215126 | 22 | 6 | 4.8 | 29.0 | 0.00 | 0.03 | 0.00 | 68 | 1016.0 |
| 20260502213626 | 21 | 37 | 6.4 | 17.7 | 0.00 | 0.03 | 0.00 | 71 | 1016.0 |
| 20260502212125 | 22 | 326 | 9.7 | 19.3 | 0.00 | 0.03 | 0.00 | 72 | 1016.0 |
| 20260502210625 | 21 | 288 | 8.0 | 29.0 | 0.00 | 0.03 | 0.00 | 71 | 1016.3 |
| 20260502205125 | 21 | 32 | 6.4 | 19.3 | 0.00 | 0.03 | 0.00 | 76 | 1016.0 |
| 20260502203625 | 21 | 17 | 6.4 | 20.9 | 0.00 | 0.03 | 0.00 | 77 | 1016.3 |
| 20260502202125 | 21 | 356 | 8.0 | 46.7 | 0.00 | 0.03 | 0.00 | 79 | 1016.3 |
| 20260502200624 | 21 | 39 | 8.0 | 25.7 | 0.00 | 0.03 | 0.00 | 80 | 1016.6 |
| 20260502195124 | 21 | 326 | 6.4 | 19.3 | 0.00 | 0.03 | 0.00 | 84 | 1017.0 |
| 20260502193624 | 20 | 93 | 6.4 | 17.7 | 0.00 | 0.03 | 0.00 | 87 | 1017.0 |
| 20260502192124 | 21 | 359 | 8.0 | 24.1 | 0.00 | 0.03 | 0.00 | 88 | 1017.0 |
| 20260502190623 | 21 | 332 | 8.0 | 30.6 | 0.00 | 0.03 | 0.00 | 94 | 1017.0 |
| 20260502185123 | 20 | 301 | 8.0 | 25.7 | 0.00 | 0.03 | 0.00 | 99 | 1017.0 |
| 20260502183623 | 20 | 293 | 8.0 | 27.4 | 0.00 | 0.03 | 0.00 | 100 | 1017.0 |
| 20260502182123 | 20 | 93 | 8.0 | 27.4 | 0.00 | 0.03 | 0.00 | 100 | 1017.0 |
| 20260502180623 | 18 | 270 | 6.4 | 19.3 | 0.00 | 0.03 | 0.00 | 100 | 1017.0 |
| 20260502163622 | 16 | 195 | 3.2 | 24.1 | 0.00 | 0.03 | 0.00 | 100 | 1018.0 |
| 20260502162121 | 16 | 301 | 8.0 | 17.7 | 0.00 | 0.03 | 0.00 | 100 | 1018.0 |
| 20260502160621 | 16 | 60 | 6.4 | 20.9 | 0.00 | 0.03 | 0.00 | 100 | 1018.0 |
| 20260502152121 | 16 | 13 | 3.2 | 16.1 | 0.00 | 0.03 | 0.00 | 100 | 1018.0 |
| 20260502150621 | 15 | 17 | 6.4 | 14.5 | 0.00 | 0.03 | 0.00 | 100 | 1017.7 |
| 20260502130619 | 13 | 283 | 3.2 | 8.0 | 0.00 | 0.03 | 0.00 | 100 | 1016.6 |
| 20260502123619 | 13 | 332 | 4.8 | 9.7 | 0.00 | 0.03 | 0.00 | 100 | 1016.3 |
| 20260502122119 | 13 | 309 | 0.0 | 4.8 | 0.00 | 0.03 | 0.00 | 100 | 1016.3 |
| 20260502120618 | 13 | 20 | 0.0 | 0.0 | 0.00 | 0.03 | 0.00 | 100 | 1015.6 |
| 20260502115118 | 13 | 20 | 0.0 | 0.0 | 0.00 | 0.03 | 0.00 | 100 | 1015.3 |
| 20260502113618 | 13 | 20 | 0.0 | 0.0 | 0.00 | 0.03 | 0.00 | 100 | 1015.3 |
| 20260502112118 | 13 | 41 | 0.0 | 4.8 | 0.00 | 0.03 | 0.00 | 100 | 1015.3 |
| 20260502110618 | 13 | 75 | 0.0 | 9.7 | 0.00 | 0.03 | 0.00 | 100 | 1014.9 |
| 20260502105117 | 13 | 353 | 0.0 | 9.7 | 0.00 | 0.03 | 0.00 | 100 | 1014.9 |
| 20260502103617 | 13 | 281 | 1.6 | 12.9 | 0.00 | 0.03 | 0.00 | 100 | 1014.9 |
| 20260502102117 | 13 | 28 | 1.6 | 12.9 | 0.00 | 0.03 | 0.00 | 100 | 1014.6 |
| 20260502100617 | 13 | 46 | 4.8 | 14.5 | 0.00 | 0.03 | 0.00 | 100 | 1014.6 |
| 20260502090616 | 13 | 21 | 3.2 | 14.5 | 0.00 | 0.03 | 0.00 | 100 | 1013.9 |
| 20260502070615 | 13 | 349 | 3.2 | 14.5 | 0.00 | 0.03 | 0.00 | 100 | 1013.9 |
| 20260502065114 | 13 | 250 | 0.0 | 11.3 | 0.00 | 0.03 | 0.00 | 100 | 1013.9 |
| 20260502063614 | 13 | 359 | 4.8 | 14.5 | 0.00 | 0.03 | 0.00 | 100 | 1013.9 |
| 20260502062114 | 13 | 52 | 1.6 | 11.3 | 0.00 | 0.03 | 0.00 | 100 | 1013.9 |
| 20260502060614 | 13 | 25 | 1.6 | 17.7 | 0.00 | 0.03 | 0.03 | 100 | 1014.6 |
| 20260502055113 | 13 | 25 | 3.2 | 8.0 | 0.00 | 0.03 | 0.03 | 100 | 1014.3 |
| 20260502053613 | 13 | 23 | 1.6 | 14.5 | 0.00 | 0.03 | 0.03 | 100 | 1014.3 |
| 20260502052113 | 13 | 347 | 6.4 | 14.5 | 0.00 | 0.03 | 0.03 | 100 | 1013.9 |
| 20260502050613 | 14 | 13 | 3.2 | 12.9 | 0.00 | 0.03 | 0.03 | 100 | 1014.3 |
| 20260502045113 | 14 | 6 | 1.6 | 14.5 | 0.00 | 0.03 | 0.03 | 100 | 1013.9 |
| 20260502043612 | 13 | 0 | 3.2 | 16.1 | 0.00 | 0.03 | 0.03 | 100 | 1013.2 |
| 20260502042112 | 14 | 6 | 3.2 | 12.9 | 0.00 | 0.03 | 0.03 | 100 | 1013.2 |
| 20260502040612 | 15 | 63 | 3.2 | 12.9 | 0.03 | 0.03 | 0.03 | 100 | 1013.6 |
| 20260502035112 | 14 | 34 | 8.0 | 16.1 | 0.03 | 0.03 | 0.03 | 100 | 1013.2 |
| 20260502033611 | 14 | 359 | 3.2 | 19.3 | 0.03 | 0.03 | 0.03 | 100 | 1013.2 |
| 20260502032111 | 14 | 25 | 6.4 | 17.7 | 0.03 | 0.03 | 0.03 | 100 | 1013.2 |
| 20260502030611 | 14 | 35 | 1.6 | 24.1 | 0.00 | 0.03 | 0.00 | 100 | 1013.2 |
| 20260502025111 | 14 | 63 | 0.0 | 16.1 | 0.00 | 0.03 | 0.00 | 100 | 1012.9 |
| 20260502023611 | 14 | 55 | 4.8 | 12.9 | 0.00 | 0.03 | 0.00 | 100 | 1013.2 |
| 20260502022111 | 15 | 25 | 0.0 | 17.7 | 0.00 | 0.03 | 0.00 | 100 | 1012.9 |
| 20260502020610 | 15 | 333 | 1.6 | 20.9 | 0.00 | 0.03 | 0.00 | 100 | 1012.6 |
| 20260502015110 | 14 | 79 | 0.0 | 19.3 | 0.00 | 0.03 | 0.00 | 100 | 1012.2 |
| 20260502013610 | 14 | 333 | 6.4 | 16.1 | 0.00 | 0.03 | 0.00 | 100 | 1011.9 |
| 20260502012110 | 14 | 32 | 6.4 | 27.4 | 0.00 | 0.03 | 0.00 | 100 | 1011.6 |
| 20260502010610 | 14 | 100 | 4.8 | 20.9 | 0.00 | 0.03 | 0.00 | 100 | 1010.9 |
| 20260502005110 | 14 | 42 | 4.8 | 24.1 | 0.00 | 0.03 | 0.00 | 100 | 1010.2 |
| 20260502003609 | 14 | 51 | 1.6 | 9.7 | 0.00 | 0.03 | 0.00 | 100 | 1011.2 |
| 20260502002109 | 15 | 21 | 3.2 | 16.1 | 0.00 | 0.03 | 0.00 | 100 | 1011.2 |
| 20260502000609 | 15 | 10 | 3.2 | 14.5 | 0.00 | 0.03 | 0.00 | 100 | 1011.9 |
| 20260501235109 | 14 | 181 | 0.0 | 16.1 | 0.00 | 0.03 | 0.00 | 100 | 1012.9 |
| 20260501233609 | 14 | 48 | 4.8 | 16.1 | 0.00 | 0.03 | 0.00 | 100 | 1011.9 |
| 20260501232109 | 14 | 41 | 4.8 | 14.5 | 0.00 | 0.03 | 0.00 | 100 | 1011.9 |
| 20260501230608 | 15 | 314 | 1.6 | 25.7 | 0.00 | 0.03 | 0.00 | 100 | 1011.9 |
| 20260501225108 | 14 | 75 | 8.0 | 24.1 | 0.00 | 0.03 | 0.00 | 100 | 1011.9 |